Location: Tamazert
(32.6352°N, 5.2072°W)
Time: 06:09:25
(UTC+00:00)

Vanguard 2 - Pass Details

Date: 06 October 2022
Orbit: 553 x 2933 km, 32.9° (Epoch: 26 November)

Event Time Altitude Azimuth Distance (km) Brightness Sun altitude
Rises 13:41:23 0° 264° (W) 4,534 11.9 46.2°
Reaches altitude 10° 13:43:56 10° 264° (W) 3,816 11.6 45.9°
Maximum altitude 13:54:44 90° 358° (N) 2,242 10.7 44.5°
Drops below altitude 10° 14:11:40 10° 88° (E) 5,667 11.7 42.2°
Sets 14:16:22 0° 88° (E) 6,771 12.0 41.5°
